Regional Weather Roundup
Issued by NWS Kansas City/Pleasant Hill, MO

Home | Current Version | Previous Version | Graphics & Text | Print | Product List | Glossary Off
Versions: 1 2 3 4 5 6 7 8 9 10 11 12 13 14 15 16 17 18 19 20 21 22 23 24 25 26 27

000
ASUS43 KEAX 100710
RWREAX

WEATHER ROUNDUP FOR EASTERN KANSAS AND NORTHWEST MISSOURI
NATIONAL WEATHER SERVICE KANSAS CITY/PLEASANT HILL MO
100 AM CST SAT DEC 10 2016

KSZ040-057-103>105-MOZ028-029-037-043-100800-
...KANSAS CITY METROPOLITAN AREA...

CITY           SKY/WX    TMP DP  RH WIND       PRES   REMARKS
K.C. INTL      CLOUDY    27  11  51 SE5       30.49S WCI  22
K.C. DOWNTOWN  CLOUDY    29  11  47 S3        30.50F
LEES SUMMIT    CLOUDY    26  12  55 SE6       30.50S WCI  19
OLATHE - IXD   CLOUDY    26  15  63 SE5       30.49S WCI  20
OLATHE - OJC   CLOUDY    25  12  58 MISG      30.48F
LAWRENCE       CLOUDY    25  18  74 SE5       30.49F WCI  19

$$

MOZ001>008-011>017-020>025-030>033-038>040-044>046-053-054-100800-
...NORTHERN AND CENTRAL MISSOURI...

CITY           SKY/WX    TMP DP  RH WIND       PRES   REMARKS
ST. JOSEPH     CLOUDY    26  13  57 SE3       30.51S
MOSBY          CLOUDY    27  14  59 SE3       30.52R
WARRENSBURG    CLOUDY    27  12  54 E5        30.51F WCI  21
WHITEMAN AFB   CLOUDY    26  12  55 E6        30.50F WCI  19
CLINTON        CLOUDY    27  16  63 E5        30.52F WCI  21
SEDALIA        CLOUDY    26  11  52 SE6       30.53F WCI  19
WARSAW         NOT AVBL
CHILLICOTHE      N/A     25  12  58 CALM      30.55R
KIRKSVILLE     CLOUDY    24  16  71 CALM      30.52S

$$

MOZ041-047>049-056>058-063>065-088>090-097-100800-
...EASTERN AND SOUTHERN MISSOURI...

CITY           SKY/WX    TMP DP  RH WIND       PRES   REMARKS
ST. LOUIS INTL CLOUDY    26  14  60 CALM      30.57F
SPIRIT OF STL  CLOUDY    23  19  85 CALM      30.58S
COLUMBIA       CLOUDY    24  11  57 SE6       30.52F WCI  17
JEFFERSON CITY CLOUDY    25  12  58 E5        30.55F WCI  19
ROLLA          CLOUDY    23  12  62 E6        30.51F WCI  16
OSAGE BEACH    CLOUDY    26  13  57 E6        30.53F WCI  19
SPRINGFIELD    CLOUDY    30  14  51 S10       30.47F WCI  21
BRANSON        CLOUDY    27  14  59 SE3       30.49F
JOPLIN         CLOUDY    31  17  56 SE3       30.49S
WEST PLAINS    CLEAR     24  12  60 S3        30.51F

$$

IAZ060-094-KSZ022-034>040-054-083-096-NEZ052-066-093-100800-
...KANSAS...SOUTHEAST NEBRASKA AND IOWA...

CITY           SKY/WX    TMP DP  RH WIND       PRES   REMARKS
TOPEKA         CLOUDY    26  16  65 CALM      30.50R
MANHATTAN      CLOUDY    29  15  56 S3        30.47R
EMPORIA        CLOUDY    23  17  78 SE3       30.46F
CHANUTE        CLOUDY    29  16  58 SE3       30.47F
WICHITA        CLOUDY    21  13  71 SE5       30.44S WCI  15
OMAHA          CLOUDY    23  12  62 SE6       30.49F WCI  16
LINCOLN        CLOUDY    22  15  75 CALM      30.48R
FALLS CITY     CLOUDY    25  15  66 SE6       30.48F WCI  18
LAMONI         CLOUDY    22  12  65 CALM      30.50R
DES MOINES     CLOUDY    22  13  68 W5        30.52S WCI  16

$$





USA.gov is the U.S. government's official web portal to all federal, state and local government web resources and services.